| time (UTC) | temp F | wind direction | speed knots | gust knots | rain 1hr in | rain 24hr in | rain mn in | humidity % | barometer mb |
| 20260503010104 | 51 | 297 | 1.7 | 4.3 | 0.06 | 0.17 | 0.17 | 1009.4 | |
| 20260503004604 | 52 | 297 | 4.3 | 4.3 | 0.05 | 0.16 | 0.16 | 1009.4 | |
| 20260503004105 | 52 | 297 | 2.6 | 4.3 | 0.04 | 0.15 | 0.15 | 1009.4 | |
| 20260503003603 | 52 | 297 | 2.6 | 4.3 | 0.04 | 0.13 | 0.13 | 1009.4 | |
| 20260503003104 | 52 | 297 | 1.7 | 4.3 | 0.06 | 0.13 | 0.13 | 1009.4 | |
| 20260503002604 | 52 | 297 | 1.7 | 4.3 | 0.06 | 0.13 | 0.13 | 1009.4 | |
| 20260503002103 | 52 | 297 | 2.6 | 4.3 | 0.05 | 0.13 | 0.13 | 1009.4 | |
| 20260503001606 | 52 | 297 | 1.7 | 4.3 | 0.06 | 0.13 | 0.13 | 1009.4 | |
| 20260503001105 | 52 | 298 | 2.6 | 4.3 | 0.06 | 0.12 | 0.12 | 1009.4 | |
| 20260503000604 | 52 | 297 | 2.6 | 4.3 | 0.06 | 0.11 | 0.11 | 1009.4 | |
| 20260503000105 | 52 | 298 | 1.7 | 4.3 | 0.06 | 0.11 | 0.11 | 1009.7 | |
| 20260502235604 | 52 | 298 | 4.3 | 4.3 | 0.06 | 0.11 | 0.11 | 1009.7 | |
| 20260502235105 | 52 | 298 | 2.6 | 4.3 | 0.07 | 0.11 | 0.11 | 1009.7 | |
| 20260502234603 | 52 | 298 | 2.6 | 4.3 | 0.07 | 0.11 | 0.11 | 1009.7 | |
| 20260502234103 | 52 | 298 | 4.3 | 4.3 | 0.08 | 0.11 | 0.11 | 1009.7 | |
| 20260502233604 | 52 | 299 | 1.7 | 4.3 | 0.06 | 0.09 | 0.09 | 1009.7 | |
| 20260502233104 | 52 | 299 | 2.6 | 4.3 | 0.05 | 0.08 | 0.08 | 1009.7 | |
| 20260502232604 | 53 | 298 | 1.7 | 4.3 | 0.05 | 0.08 | 0.08 | 1009.7 | |
| 20260502232103 | 53 | 299 | 2.6 | 4.3 | 0.05 | 0.08 | 0.08 | 1009.7 | |
| 20260502231604 | 53 | 299 | 1.7 | 1.7 | 0.05 | 0.06 | 0.06 | 1009.7 | |
| 20260502231104 | 53 | 298 | 1.7 | 4.3 | 0.05 | 0.06 | 0.06 | 1009.7 | |
| 20260502230604 | 53 | 299 | 2.6 | 4.3 | 0.04 | 0.06 | 0.06 | 1009.7 | |
| 20260502230104 | 53 | 299 | 1.7 | 1.7 | 0.06 | 0.06 | 0.06 | 1009.9 | |
| 20260502225603 | 53 | 300 | 1.7 | 1.7 | 0.06 | 0.06 | 0.06 | 1009.9 | |
| 20260502225104 | 53 | 299 | 1.7 | 1.7 | 0.04 | 0.04 | 0.04 | 1009.9 | |
| 20260502224604 | 53 | 300 | 1.7 | 1.7 | 0.04 | 0.04 | 0.04 | 1009.9 | |
| 20260502224103 | 53 | 299 | 1.7 | 4.3 | 0.03 | 0.03 | 0.03 | 1009.9 | |
| 20260502223605 | 53 | 301 | 1.7 | 4.3 | 0.03 | 0.03 | 0.03 | 1009.9 | |
| 20260502223104 | 53 | 300 | 2.6 | 4.3 | 0.03 | 0.03 | 0.03 | 1009.9 | |
| 20260502222604 | 53 | 301 | 4.3 | 4.3 | 0.03 | 0.03 | 0.03 | 1009.9 | |
| 20260502222104 | 54 | 301 | 4.3 | 4.3 | 0.03 | 0.03 | 0.03 | 1009.9 | |
| 20260502221604 | 54 | 301 | 0.9 | 1.7 | 0.02 | 0.02 | 0.02 | 1009.9 | |
| 20260502221103 | 54 | 301 | 1.7 | 1.7 | 0.02 | 0.02 | 0.02 | 1009.9 | |
| 20260502220604 | 54 | 301 | 0.9 | 1.7 | 0.02 | 0.02 | 0.02 | 1009.9 | |
| 20260502215605 | 54 | 301 | 0.0 | 1.7 | 0.00 | 0.00 | 0.00 | 1010.2 | |
| 20260502215104 | 54 | 301 | 0.9 | 1.7 | 0.00 | 0.00 | 0.00 | 1010.2 | |
| 20260502214604 | 54 | 302 | 1.7 | 1.7 | 0.00 | 0.00 | 0.00 | 1010.2 | |
| 20260502214104 | 54 | 302 | 1.7 | 1.7 | 0.00 | 0.00 | 0.00 | 1010.2 | |
| 20260502213604 | 55 | 302 | 0.0 | 0.0 | 0.00 | 0.00 | 0.00 | 1010.2 | |
| 20260502213104 | 55 | 302 | 0.0 | 0.0 | 0.00 | 0.00 | 0.00 | 1010.2 | |
| 20260502212604 | 55 | 302 | 0.0 | 0.0 | 0.00 | 0.00 | 0.00 | 1010.2 | |
| 20260502212104 | 55 | 303 | 0.0 | 0.0 | 0.00 | 0.00 | 0.00 | 1010.2 | |
| 20260502211604 | 55 | 303 | 0.0 | 0.0 | 0.00 | 0.00 | 0.00 | 1010.2 | |
| 20260502211105 | 55 | 303 | 1.7 | 1.7 | 0.00 | 0.00 | 0.00 | 1010.2 | |
| 20260502210603 | 55 | 303 | 0.0 | 0.0 | 0.00 | 0.00 | 0.00 | 1010.2 | |
| 20260502210104 | 55 | 304 | 0.0 | 0.0 | 0.00 | 0.00 | 0.00 | 1010.3 | |
| 20260502205604 | 56 | 304 | 0.0 | 0.0 | 0.00 | 0.00 | 0.00 | 1010.3 | |
| 20260502205104 | 56 | 304 | 0.0 | 0.0 | 0.00 | 0.00 | 0.00 | 1010.3 | |
| 20260502204604 | 56 | 304 | 0.0 | 0.0 | 0.00 | 0.00 | 0.00 | 1010.3 | |
| 20260502204105 | 56 | 304 | 0.0 | 0.0 | 0.00 | 0.00 | 0.00 | 1010.3 | |
| 20260502203603 | 56 | 304 | 0.0 | 0.0 | 0.00 | 0.00 | 0.00 | 1010.3 | |
| 20260502203104 | 56 | 305 | 0.0 | 0.0 | 0.00 | 0.00 | 0.00 | 1010.3 | |
| 20260502202604 | 56 | 305 | 0.0 | 0.0 | 0.00 | 0.00 | 0.00 | 1010.3 | |
| 20260502202105 | 56 | 305 | 0.0 | 0.0 | 0.00 | 0.00 | 0.00 | 1010.3 | |
| 20260502201603 | 56 | 305 | 0.0 | 0.0 | 0.00 | 0.00 | 0.00 | 1010.3 | |
| 20260502201104 | 56 | 306 | 0.0 | 0.0 | 0.00 | 0.00 | 0.00 | 1010.3 | |
| 20260502200603 | 56 | 306 | 0.0 | 0.0 | 0.00 | 0.00 | 0.00 | 1010.3 | |
| 20260502200104 | 56 | 306 | 0.0 | 0.0 | 0.00 | 0.00 | 0.00 | 1010.4 | |
| 20260502195604 | 56 | 307 | 0.0 | 0.0 | 0.00 | 0.00 | 0.00 | 1010.4 | |
| 20260502194104 | 57 | 308 | 0.0 | 0.0 | 0.00 | 0.00 | 0.00 | 1010.4 | |
| 20260502193603 | 57 | 308 | 0.0 | 0.0 | 0.00 | 0.00 | 0.00 | 1010.4 | |
| 20260502193104 | 57 | 309 | 0.0 | 0.0 | 0.00 | 0.00 | 0.00 | 1010.4 | |
| 20260502192604 | 57 | 309 | 0.0 | 0.0 | 0.00 | 0.00 | 0.00 | 1010.4 | |
| 20260502192103 | 57 | 310 | 0.0 | 0.0 | 0.00 | 0.00 | 0.00 | 1010.4 | |
| 20260502191104 | 58 | 311 | 0.0 | 0.0 | 0.00 | 0.00 | 0.00 | 1010.4 | |
| 20260502190604 | 58 | 314 | 0.0 | 0.0 | 0.00 | 0.02 | 0.00 | 1010.4 | |
| 20260502190104 | 58 | 314 | 0.0 | 0.0 | 0.00 | 0.04 | 0.00 | 1010.7 | |
| 20260502185604 | 58 | 315 | 1.7 | 1.7 | 0.00 | 0.06 | 0.00 | 1010.7 | |
| 20260502185104 | 58 | 316 | 1.7 | 1.7 | 0.00 | 0.06 | 0.00 | 1010.7 | |
| 20260502184604 | 58 | 316 | 0.0 | 0.0 | 0.00 | 0.06 | 0.00 | 1010.7 | |
| 20260502184104 | 58 | 317 | 0.0 | 0.0 | 0.00 | 0.06 | 0.00 | 1010.7 | |
| 20260502183603 | 58 | 318 | 0.0 | 0.0 | 0.00 | 0.06 | 0.00 | 1010.7 | |
| 20260502183106 | 58 | 319 | 0.0 | 0.0 | 0.00 | 0.06 | 0.00 | 1010.7 | |
| 20260502181604 | 59 | 321 | 0.0 | 0.0 | 0.00 | 0.06 | 0.00 | 1010.7 | |
| 20260502181104 | 59 | 322 | 0.0 | 0.0 | 0.00 | 0.06 | 0.00 | 1010.7 | |
| 20260502180604 | 59 | 323 | 0.0 | 0.0 | 0.00 | 0.06 | 0.00 | 1010.7 | |
| 20260502180104 | 59 | 325 | 0.0 | 0.0 | 0.00 | 0.06 | 0.00 | 1011.0 | |
| 20260502170104 | 61 | 339 | 1.7 | 1.7 | 0.00 | 0.09 | 0.00 | 1011.6 | |
| 20260502164104 | 61 | 345 | 1.7 | 4.3 | 0.00 | 0.09 | 0.00 | 1011.6 | |
| 20260502163104 | 61 | 346 | 1.7 | 1.7 | 0.00 | 0.09 | 0.00 | 1011.6 | |
| 20260502162604 | 61 | 343 | 4.3 | 4.3 | 0.00 | 0.09 | 0.00 | 1011.6 | |
| 20260502162104 | 61 | 347 | 0.9 | 4.3 | 0.00 | 0.09 | 0.00 | 1011.6 | |
| 20260502161604 | 61 | 347 | 0.9 | 1.7 | 0.00 | 0.09 | 0.00 | 1011.6 | |
| 20260502160104 | 61 | 349 | 0.9 | 1.7 | 0.00 | 0.09 | 0.00 | 1012.5 | |
| 20260502152103 | 62 | 350 | 2.6 | 4.3 | 0.00 | 0.09 | 0.00 | 1012.5 | |
| 20260502151604 | 62 | 348 | 4.3 | 4.3 | 0.00 | 0.09 | 0.00 | 1012.5 | |
| 20260502150604 | 62 | 349 | 1.7 | 1.7 | 0.00 | 0.09 | 0.00 | 1012.5 | |
| 20260502150104 | 62 | 349 | 4.3 | 4.3 | 0.00 | 0.09 | 0.00 | 1013.0 | |
| 20260502130604 | 60 | 331 | 4.3 | 4.3 | 0.00 | 0.09 | 0.00 | 1013.6 | |
| 20260502130104 | 60 | 331 | 2.6 | 4.3 | 0.00 | 0.09 | 0.00 | 1014.2 | |
| 20260502123604 | 59 | 329 | 4.3 | 6.1 | 0.00 | 0.09 | 0.00 | 1014.2 | |
| 20260502123104 | 59 | 328 | 4.3 | 4.3 | 0.00 | 0.09 | 0.00 | 1014.2 | |
| 20260502122604 | 59 | 328 | 4.3 | 4.3 | 0.00 | 0.09 | 0.00 | 1014.2 | |
| 20260502121604 | 59 | 327 | 5.2 | 6.1 | 0.00 | 0.09 | 0.00 | 1014.2 | |
| 20260502121103 | 59 | 326 | 4.3 | 4.3 | 0.00 | 0.09 | 0.00 | 1014.2 | |
| 20260502120604 | 59 | 325 | 4.3 | 4.3 | 0.00 | 0.09 | 0.00 | 1014.2 | |
| 20260502120104 | 58 | 324 | 2.6 | 4.3 | 0.00 | 0.09 | 0.00 | 1014.2 | |
| 20260502115604 | 58 | 323 | 4.3 | 4.3 | 0.00 | 0.09 | 0.00 | 1014.2 | |
| 20260502115104 | 58 | 322 | 1.7 | 4.3 | 0.00 | 0.09 | 0.00 | 1014.2 | |
| 20260502113603 | 57 | 318 | 4.3 | 4.3 | 0.00 | 0.09 | 0.00 | 1014.2 | |
| 20260502113104 | 57 | 318 | 2.6 | 6.1 | 0.00 | 0.09 | 0.00 | 1014.2 | |
| 20260502112106 | 56 | 315 | 4.3 | 6.1 | 0.00 | 0.09 | 0.00 | 1014.2 | |
| 20260502111604 | 56 | 314 | 4.3 | 6.1 | 0.00 | 0.09 | 0.00 | 1014.2 | |
| 20260502111105 | 56 | 314 | 5.2 | 6.1 | 0.00 | 0.09 | 0.00 | 1014.2 | |
| 20260502110605 | 56 | 313 | 4.3 | 4.3 | 0.00 | 0.09 | 0.00 | 1014.2 | |
| 20260502110106 | 56 | 312 | 1.7 | 4.3 | 0.00 | 0.09 | 0.00 | 1014.2 | |
| 20260502105604 | 56 | 312 | 4.3 | 6.1 | 0.00 | 0.09 | 0.00 | 1014.2 | |
| 20260502105104 | 55 | 311 | 4.3 | 4.3 | 0.00 | 0.09 | 0.00 | 1014.2 | |
| 20260502104604 | 55 | 310 | 2.6 | 4.3 | 0.00 | 0.09 | 0.00 | 1014.2 | |
| 20260502104104 | 55 | 311 | 4.3 | 4.3 | 0.00 | 0.09 | 0.00 | 1014.2 | |
| 20260502103604 | 55 | 310 | 2.6 | 4.3 | 0.00 | 0.09 | 0.00 | 1014.2 | |
| 20260502103104 | 55 | 310 | 2.6 | 4.3 | 0.00 | 0.09 | 0.00 | 1014.2 | |
| 20260502102604 | 55 | 310 | 1.7 | 1.7 | 0.00 | 0.09 | 0.00 | 1014.2 | |
| 20260502102104 | 55 | 309 | 4.3 | 4.3 | 0.00 | 0.09 | 0.00 | 1014.2 | |
| 20260502101604 | 55 | 307 | 1.7 | 4.3 | 0.00 | 0.09 | 0.00 | 1014.2 | |
| 20260502101105 | 55 | 307 | 2.6 | 4.3 | 0.00 | 0.09 | 0.00 | 1014.2 | |
| 20260502100604 | 55 | 307 | 1.7 | 4.3 | 0.00 | 0.09 | 0.00 | 1014.2 | |
| 20260502100105 | 54 | 306 | 4.3 | 6.1 | 0.00 | 0.09 | 0.00 | 1014.6 | |
| 20260502091104 | 53 | 301 | 4.3 | 4.3 | 0.00 | 0.09 | 0.00 | 1014.6 | |
| 20260502090605 | 53 | 300 | 4.3 | 6.1 | 0.00 | 0.09 | 0.00 | 1014.6 | |
| 20260502080105 | 53 | 300 | 2.6 | 4.3 | 0.00 | 0.09 | 0.09 | 1014.4 | |
| 20260502071105 | 52 | 299 | 6.1 | 6.1 | 0.00 | 0.09 | 0.09 | 1014.4 | |
| 20260502070604 | 52 | 298 | 4.3 | 6.1 | 0.00 | 0.09 | 0.09 | 1014.4 | |
| 20260502065605 | 52 | 298 | 5.2 | 6.1 | 0.00 | 0.09 | 0.09 | 1014.2 | |
| 20260502064604 | 52 | 298 | 5.2 | 6.1 | 0.00 | 0.09 | 0.09 | 1014.2 | |
| 20260502064104 | 52 | 298 | 4.3 | 6.1 | 0.00 | 0.09 | 0.09 | 1014.2 | |
| 20260502063604 | 52 | 297 | 4.3 | 6.1 | 0.00 | 0.09 | 0.09 | 1014.2 | |
| 20260502063104 | 52 | 297 | 6.1 | 6.1 | 0.00 | 0.09 | 0.09 | 1014.2 | |
| 20260502062604 | 52 | 297 | 6.1 | 6.1 | 0.00 | 0.09 | 0.09 | 1014.2 | |
| 20260502062104 | 52 | 297 | 6.1 | 7.8 | 0.00 | 0.09 | 0.09 | 1014.2 | |
| 20260502061605 | 52 | 297 | 6.1 | 6.1 | 0.00 | 0.09 | 0.09 | 1014.2 | |
| 20260502060604 | 52 | 297 | 7.8 | 7.8 | 0.00 | 0.09 | 0.09 | 1014.2 | |
| 20260502060105 | 52 | 297 | 4.3 | 6.1 | 0.00 | 0.09 | 0.09 | 1014.2 | |
| 20260502055604 | 52 | 297 | 4.3 | 6.1 | 0.00 | 0.09 | 0.09 | 1014.2 | |
| 20260502055104 | 52 | 297 | 4.3 | 4.3 | 0.00 | 0.09 | 0.09 | 1014.2 | |
| 20260502054103 | 52 | 297 | 4.3 | 6.1 | 0.00 | 0.09 | 0.09 | 1014.2 | |
| 20260502053604 | 52 | 297 | 4.3 | 6.1 | 0.00 | 0.09 | 0.09 | 1014.2 | |
| 20260502053105 | 52 | 297 | 4.3 | 6.1 | 0.00 | 0.09 | 0.09 | 1014.2 | |
| 20260502052604 | 52 | 297 | 5.2 | 6.1 | 0.00 | 0.09 | 0.09 | 1014.2 | |
| 20260502052104 | 51 | 297 | 6.1 | 6.1 | 0.00 | 0.09 | 0.09 | 1014.2 | |
| 20260502051103 | 51 | 297 | 4.3 | 6.1 | 0.00 | 0.09 | 0.09 | 1014.2 | |
| 20260502050604 | 51 | 297 | 4.3 | 6.1 | 0.00 | 0.09 | 0.09 | 1014.2 | |
| 20260502050105 | 51 | 296 | 5.2 | 6.1 | 0.00 | 0.09 | 0.09 | 1014.4 | |
| 20260502045604 | 51 | 296 | 4.3 | 6.1 | 0.00 | 0.09 | 0.09 | 1014.4 | |
| 20260502045104 | 51 | 296 | 6.1 | 6.1 | 0.00 | 0.09 | 0.09 | 1014.4 | |
| 20260502044605 | 51 | 296 | 5.2 | 6.1 | 0.00 | 0.09 | 0.09 | 1014.4 | |
| 20260502043604 | 51 | 296 | 6.1 | 7.8 | 0.00 | 0.09 | 0.09 | 1014.4 | |
| 20260502043104 | 51 | 296 | 6.1 | 6.1 | 0.00 | 0.09 | 0.09 | 1014.4 | |
| 20260502042604 | 51 | 297 | 5.2 | 6.1 | 0.00 | 0.09 | 0.09 | 1014.4 | |
| 20260502042103 | 51 | 297 | 6.1 | 7.8 | 0.00 | 0.09 | 0.09 | 1014.4 | |
| 20260502041604 | 51 | 297 | 4.3 | 7.8 | 0.00 | 0.09 | 0.09 | 1014.4 | |
| 20260502040604 | 51 | 296 | 7.0 | 7.8 | 0.00 | 0.09 | 0.09 | 1014.4 | |
| 20260502040104 | 51 | 296 | 6.1 | 7.8 | 0.00 | 0.09 | 0.09 | 1014.6 | |
| 20260502035604 | 51 | 297 | 6.1 | 6.1 | 0.00 | 0.09 | 0.09 | 1014.6 | |
| 20260502034604 | 52 | 296 | 5.2 | 6.1 | 0.00 | 0.09 | 0.09 | 1014.6 | |
| 20260502034103 | 52 | 296 | 6.1 | 6.1 | 0.00 | 0.09 | 0.09 | 1014.6 | |
| 20260502033606 | 52 | 296 | 7.8 | 7.8 | 0.00 | 0.09 | 0.09 | 1014.6 | |
| 20260502033104 | 52 | 296 | 4.3 | 6.1 | 0.00 | 0.09 | 0.09 | 1014.6 | |
| 20260502032604 | 52 | 296 | 4.3 | 6.1 | 0.00 | 0.09 | 0.09 | 1014.6 | |
| 20260502032103 | 52 | 296 | 4.3 | 4.3 | 0.00 | 0.09 | 0.09 | 1014.6 | |
| 20260502031105 | 52 | 296 | 4.3 | 6.1 | 0.00 | 0.09 | 0.09 | 1014.6 | |
| 20260502030604 | 51 | 296 | 4.3 | 6.1 | 0.00 | 0.09 | 0.09 | 1014.6 | |
| 20260502030104 | 51 | 296 | 6.1 | 6.1 | 0.00 | 0.09 | 0.09 | 1015.2 | |
| 20260502025605 | 51 | 296 | 6.1 | 6.1 | 0.00 | 0.09 | 0.09 | 1015.2 | |
| 20260502025104 | 51 | 296 | 1.7 | 4.3 | 0.00 | 0.09 | 0.09 | 1015.2 | |
| 20260502024605 | 51 | 296 | 1.7 | 6.1 | 0.00 | 0.09 | 0.09 | 1015.2 | |
| 20260502024103 | 51 | 296 | 4.3 | 4.3 | 0.00 | 0.09 | 0.09 | 1015.2 | |
| 20260502023604 | 51 | 295 | 1.7 | 4.3 | 0.00 | 0.09 | 0.09 | 1015.2 | |
| 20260502023104 | 51 | 295 | 2.6 | 6.1 | 0.00 | 0.09 | 0.09 | 1015.2 | |
| 20260502022604 | 51 | 295 | 2.6 | 6.1 | 0.00 | 0.09 | 0.09 | 1015.2 | |
| 20260502022104 | 51 | 295 | 1.7 | 4.3 | 0.00 | 0.09 | 0.09 | 1015.2 | |
| 20260502021603 | 51 | 295 | 4.3 | 6.1 | 0.00 | 0.09 | 0.09 | 1015.2 | |
| 20260502021104 | 51 | 295 | 4.3 | 6.1 | 0.00 | 0.09 | 0.09 | 1015.2 | |
| 20260502020604 | 51 | 295 | 1.7 | 6.1 | 0.00 | 0.09 | 0.09 | 1015.2 | |
| 20260502020104 | 51 | 295 | 5.2 | 6.1 | 0.00 | 0.09 | 0.09 | 1015.8 | |
| 20260502014603 | 51 | 295 | 4.3 | 6.1 | 0.00 | 0.09 | 0.09 | 1015.8 | |
| 20260502014105 | 51 | 294 | 5.2 | 6.1 | 0.00 | 0.09 | 0.09 | 1015.8 | |
| 20260502013603 | 51 | 295 | 2.6 | 6.1 | 0.00 | 0.09 | 0.09 | 1015.8 | |
| 20260502013104 | 51 | 294 | 6.1 | 6.1 | 0.00 | 0.09 | 0.09 | 1015.8 | |
| 20260502012605 | 51 | 294 | 6.1 | 7.8 | 0.00 | 0.09 | 0.09 | 1015.8 | |
| 20260502011603 | 51 | 294 | 6.1 | 11.3 | 0.00 | 0.09 | 0.09 | 1015.8 | |
| 20260502011103 | 51 | 294 | 6.1 | 6.1 | 0.00 | 0.09 | 0.09 | 1015.8 | |
| 20260502010605 | 51 | 294 | 6.1 | 6.1 | 0.00 | 0.09 | 0.09 | 1015.8 |